Location: Brno
(49.2000°N, 16.6330°E)
Time: 03:43:49
(UTC+02:00)

Iridium 2 - Visible Passes

Search period start: 18 October 2017 00:00
Search period end: 28 October 2017 00:00
Orbit: 509 x 522 km, 85.5° (Epoch: 17 October)

Date Brightness Start Highest point End Pass type
(mag) Time Alt. Az. Time Alt. Az. Time Alt. Az.
18 Oct 7.0 06:38:25 10° NE 06:40:04 12° ENE 06:41:42 10° E visible
24 Oct 5.8 06:41:39 10° NNE 06:45:08 31° ENE 06:48:36 10° SE visible
24 Oct 6.5 20:42:16 12° NNW 20:42:16 12° NNW 20:42:38 10° N visible
25 Oct 6.2 06:26:41 10° NNE 06:29:58 26° ENE 06:33:13 10° SE visible
25 Oct 5.8 18:50:56 11° NE 18:50:56 11° NE 18:51:17 10° NE visible
25 Oct 5.6 20:20:16 10° SSW 20:25:46 25° NNW 20:27:36 10° N visible
26 Oct 6.5 06:11:46 10° NNE 06:14:46 21° ENE 06:17:46 10° SE visible
26 Oct 5.4 18:32:04 10° ESE 18:33:52 13° E 18:35:41 10° NE visible
26 Oct 4.3 20:05:02 10° SSW 20:08:45 56° W 20:12:32 10° N visible
27 Oct 6.8 05:56:54 10° NNE 05:59:34 18° ENE 06:02:12 10° ESE visible
27 Oct 5.6 18:18:03 10° E 18:18:51 11° ENE 18:19:39 10° ENE visible
27 Oct 3.8 19:49:50 10° S 19:53:37 72° W 19:57:26 10° N visible
